Hourly Data Report for September 12, 2017

All times are specified in Local Standard Time (LST). Add 1 hour to adjust for Daylight Saving Time where and when it is observed.

SUSSEX FOUR CORNERS
NEW BRUNSWICK

45°44'30.048" N
65°31'44.039" W
47.00 m
8105210
71656
ASF

Download Data

Hourly Data (September 2017)
Hourly Data Report for September 12, 2017
Temp Definition
°C
Dew Point Temp Definition
°C
Rel Hum Definition
%
Wind Dir Definition
10's deg

Wind Spd Definition
km/h
Visibility Definition
km
Stn Press Definition
kPa
Hmdx Definition


Wind Chill Definition


Weather Definition


TIME
00:00 11.3 10.3 94 7 5   100.84     LegendNANA
01:00 10.4 9.8 96 33 2   100.80     LegendNANA
02:00 9.2 8.8 97 32 5   100.75     LegendNANA
03:00 9.7 9.4 98 32 6   100.71     LegendNANA
04:00 8.2 7.8 97 7 2   100.66     LegendNANA
05:00 7.1 6.8 98 5 4   100.63     LegendNANA
06:00 7.2 7.0 99 23 4   100.64     LegendNANA
07:00 7.3 7.2 100 10 2   100.62     LegendNANA
08:00 9.7 9.7 100 16 2   100.62     LegendNANA
09:00 13.3 11.3 88 16 3   100.56     LegendNANA
10:00 16.8 11.7 72 18 4   100.49     LegendNANA
11:00 18.7 11.7 64 21 7   100.45     LegendNANA
12:00 20.6 12.9 61 18 5   100.31     LegendNANA
13:00 21.8 13.1 58 19 12   100.24 25   LegendNANA
14:00 22.8 11.6 49 19 11   100.13 25   LegendNANA
15:00 23.5 13.1 52 19 9   100.03 26   LegendNANA
16:00 24.2 13.1 50 25 9   99.97 27   LegendNANA
17:00 22.1 14.9 64 22 15   99.93 26   LegendNANA
18:00 19.4 14.2 72 21 14   99.90     LegendNANA
19:00 17.7 14.2 80 23 11   99.88     LegendNANA
20:00 16.5 13.8 84 22 12   99.91     LegendNANA
21:00 15.5 13.4 88 24 8   99.92     LegendNANA
22:00 14.4 12.8 90 24 8   99.92     LegendNANA
23:00 13.5 12.6 94 28 2   99.94     LegendNANA

Notes on Data Quality.

Legend

  • E = Estimated
  • M = Missing
  • NA = Not Available
  • ‡ = Partner data that is not subject to review by the National Climate Archives
Date modified: